2018-099J (43766 NORAD) Tracking and Keplerian Element Data

This shows tracking and keplerian element data for the satellite.

Feedback or suggestion? Click here.




ElementValue
Catalog43766
Name2018-099J
Epoch Orbit100
Epoch Day344.44709833
Epoch Year2018
RAAN53.5335
Inclination97.767
Eccentricity0.0010385
Argument of Perigee234.2011
Mean Anonmoly125.8244
Mean Motion14.94411718
Decay Rate-1.5E-07
L11 43766U 18099J 18344.44709833 -.00000015 00000-0 39800-5 0 9993
L22 43766 97.7670 53.5335 0010385 234.2011 125.8244 14.94411718 1005

Live tracking and technical data element details for 2018-099J (NORAD 43766). 2018-099J can be tracked NOW for your location showing map with azimuth and elevation plus other details from your city location.

Track the satellite on the map from your city or location and see movement details for azimuth, elevation, latitude, longitude, range, height, and movement on the map or in text.







IsCatalogInMostPopularTable: catalog: 43766, numindb: 1
Update: records affected: 1



GetName: 43766 2018-099J

Hit Count: updated at: Tue, 11 Dec 2018 03:37:17 GMT